Flag for Tajikistan Weather past 2 weeks in Dushanbe, Tajikistan

Now
39 °F

Passing clouds.


Feels Like: 37 °F
Forecast: 37 / 53 °F
Wind: 3 mph from North

Location: Dushanbe Airport

Current Time: Mar 4, 2015 at 2:22:55 AM

Latest Report: Mar 4, 2015 at 2:00 AM


Visibility: N/A

Pressure: 30.01 "Hg

Humidity: 81%

Dew point: 34 °F

Location of DushanbeLocation

Historic Weather in Dushanbe — Graph

°F

Dushanbe temperature yesterday

Maximum temperature yesterday: 55 °F (at 12:30 PM)
Minimum temperature yesterday: 37 °F (at 7:00 AM)
Average temperature yesterday: 46 °F

Past Weeks' High & Low Weather Summary

 TemperatureHumidityPressure
High63 °F (Feb 22, 1:00 PM)100% (Feb 17, 7:00 AM)30.36 "Hg (Feb 17, 7:00 AM)
Low28 °F (Feb 24, 8:00 PM)38% (Mar 1, 3:00 PM)29.83 "Hg (Feb 22, 3:30 PM)
Average43 °F79%30.07 "Hg
* Reported Midnight between Feb 16 and Feb 17 — Mar 4 12:30 AM, Dushanbe, Weather by CustomWeather, © 2015

Note: Actual official high and low records may vary slightly from our data, if they occured in-between our weather recording intervals... More about our weather records

Advertising

Dushanbe weather history for previous 24 hours

 ConditionsComfort  
Time TempWeatherWind HumidityBarometerVisibility
12:30 AM
Wed, Mar 4
37 °FPassing clouds.3 mph87%30.04 "HgN/A
12:00 AM41 °FPassing clouds.3 mph76%30.04 "HgN/A
11:30 PM
Tue, Mar 3
41 °FOvercast.1 mph81%30.07 "HgN/A
11:00 PM41 °FOvercast.1 mph81%30.07 "Hg6 mi
10:30 PM39 °FPassing clouds.1 mph81%30.07 "HgN/A
10:00 PM41 °FPassing clouds.3 mph81%30.07 "HgN/A
9:30 PM43 °FPassing clouds.3 mph76%30.07 "Hg6 mi
9:00 PM43 °FPassing clouds.6 mph76%30.07 "HgN/A
8:30 PM43 °FPassing clouds.3 mph76%30.07 "HgN/A
8:00 PM41 °FPassing clouds.8 mph81%30.07 "HgN/A
7:30 PM45 °FMostly cloudy.13 mph71%30.07 "HgN/A
7:00 PM46 °FOvercast.8 mph66%30.07 "HgN/A
6:30 PM48 °FMostly cloudy.3 mph62%30.07 "HgN/A
6:00 PM48 °FMore clouds than sun.3 mph62%30.07 "HgN/A
5:30 PM50 °FMore clouds than sun.6 mph58%30.07 "HgN/A
5:00 PM50 °FCloudy.8 mph58%30.04 "HgN/A
4:30 PM52 °FBroken clouds.3 mph50%30.04 "HgN/A
4:00 PM52 °FBroken clouds.8 mph50%30.01 "HgN/A
3:30 PM52 °FBroken clouds.10 mph47%30.01 "HgN/A
3:00 PM54 °FBroken clouds.8 mph41%29.98 "HgN/A
2:30 PM52 °FBroken clouds.8 mph47%29.98 "HgN/A
2:00 PM55 °FBroken clouds.3 mph41%29.98 "HgN/A
1:30 PM55 °FBroken clouds.10 mph41%29.98 "HgN/A
1:00 PM52 °FBroken clouds.13 mph54%30.01 "HgN/A
12:30 PM55 °FBroken clouds.10 mph41%30.01 "HgN/A
12:00 PM52 °FPartly sunny.10 mph54%30.04 "HgN/A
11:30 AM52 °FBroken clouds.8 mph62%30.04 "Hg4 mi
11:00 AM52 °FBroken clouds.3 mph67%30.04 "Hg4 mi
10:30 AM50 °FPartly sunny.3 mph67%30.04 "Hg4 mi
10:00 AM50 °FFog.3 mph67%30.04 "Hg3 mi
9:30 AM45 °FFog.3 mph81%30.04 "Hg2 mi
9:00 AM45 °FFog.3 mph81%30.04 "Hg1 mi
8:30 AM45 °FFog.1 mph81%30.04 "Hg1 mi
7:30 AM41 °FFog.1 mph87%30.01 "Hg1 mi
7:00 AM37 °FFog.3 mph93%30.01 "Hg2 mi
6:30 AM39 °FFog.3 mph93%30.01 "Hg3 mi
6:00 AM41 °FFog.3 mph87%30.01 "Hg3 mi
5:30 AM39 °FFog.1 mph93%30.01 "Hg3 mi
5:00 AM39 °FFog.1 mph93%29.98 "Hg3 mi
4:30 AM41 °FFog.1 mph87%29.98 "Hg3 mi
4:00 AM41 °FFog.3 mph87%29.98 "Hg3 mi
3:30 AM41 °FFog.3 mph87%30.01 "Hg2 mi
3:00 AM41 °FFog.3 mph93%30.01 "Hg2 mi
2:30 AM43 °FFog.3 mph87%30.01 "Hg3 mi
2:00 AM45 °FFog.3 mph81%30.01 "Hg3 mi
Weather by CustomWeather, © 2015

See weather overviewHow to use our weather pages